Regional Weather Roundup
Issued by NWS Albany, NY

Home | Current Version | Previous Version | Text Only | Print | Product List | Glossary On
Versions: 1 2 3 4 5 6 7 8 9 10 11 12 13 14 15 16 17 18 19 20 21 22 23 24 25 26 27
000
ASUS41 KALY 280510
RWRALY

NEW YORK STATE HOURLY WEATHER ROUNDUP
NATIONAL WEATHER SERVICE ALBANY NY
100 AM EDT TUE JUN 28 2016

NOTE: "FAIR" INDICATES FEW OR NO CLOUDS BELOW 12,000 FEET WITH NO
SIGNIFICANT WEATHER AND/OR NO OBSTRUCTIONS TO VISIBILITY.

NYZ032-033-038>043-046>054-057>066-NYZ062>081-082-084-280600-
EAST


CITY           SKY/WX    TMP DP  RH WIND       PRES   REMARKS
ALBANY         PTCLDY    70  65  84 S9        29.95F
GLENS FALLS    PTCLDY    67  63  87 CALM      29.95S
POUGHKEEPSIE   CLOUDY    70  67  90 SE3       29.97F
MONTGOMERY     CLOUDY    68  66  93 CALM      29.98F
WHITE PLAINS   RAIN      69  67  93 S6        30.00S FOG
ISLIP          LGT RAIN  70  67  90 SW9       30.01F
NEW YORK CITY  LGT RAIN  71  69  93 S8        29.99S
CENTRAL PARK   HVY RAIN  69  68  96 CALM      30.02S VSB 1
$$

NYZ005>009-017-018-044>046-055-056-280600-
CENTRAL


CITY           SKY/WX    TMP DP  RH WIND       PRES   REMARKS
FULTON         CLOUDY    72  67  84 SE3       29.88F
SYRACUSE       PTCLDY    69  66  90 E6        29.89S
ROME           CLEAR     68  67  96 E8        29.93S
ELMIRA         FOG       64  62  93 CALM      29.93S VSB 1/4
BINGHAMTON     CLEAR     65  64  97 S6        29.97F FOG
MONTICELLO     CLOUDY    64  63  94 CALM      30.02F
$$

NYZ026>034-041>043-087-280600-
NORTH


CITY           SKY/WX    TMP DP  RH WIND       PRES   REMARKS
WATERTOWN      CLEAR     71  66  84 VRB6      29.86S
FORT DRUM      NOT AVBL
MASSENA        CLOUDY    74  65  73 SW10      29.84S
SARANAC LAKE   CLEAR     66  61  84 SW7       29.92S
PLATTSBURGH    PTCLDY    67  64  90 S8        29.86S
$$

NYZ001>004-010>016-019>021-085-280600-
WEST


CITY           SKY/WX    TMP DP  RH WIND       PRES   REMARKS
NIAGARA FALLS  CLEAR     71  56  58 N7        29.90R
BUFFALO        PTCLDY    71  58  63 N7        29.89R
DUNKIRK        PTCLDY    75  61  61 SW8       29.90R
JAMESTOWN      PTCLDY    68  52  56 S7        29.95S
WELLSVILLE     CLEAR     67  54  63 SW6       29.99F
ROCHESTER      PTCLDY    72  56  57 NW6       29.88S
PENN YAN       CLEAR     68  58  70 SW3       29.92S
$$

             KEY
       WCI = WIND CHILL INDEX
       VSB = VISIBILITY
       HX  = HEAT INDEX
$$




USA.gov is the U.S. government's official web portal to all federal, state and local government web resources and services.